Clear Lake, IA

8:18 PM CST on January 18, 2017 (GMT -0600)
Mason City Municipal

Weather History for KMCW - November, 2011

Change the Weather History Date:

Tuesday, November 15, 2011

  Actual Average Record
Temperature  
Mean Temperature 39 °F 34 °F  
Max Temperature 55 °F 43 °F 68 °F (1953)
Min Temperature 22 °F 25 °F -3 °F (1940)
Degree Days  
Heating Degree Days 26 31  
Month to date heating degree days 358 405  
Since 1 July heating degree days 996 1143  
Cooling Degree Days 0 0  
Month to date cooling degree days 0 0  
Year to date cooling degree days 789 616  
Moisture  
Dew Point 23 °F    
Average Humidity 50    
Maximum Humidity 76    
Minimum Humidity 24    
Precipitation  
Precipitation T in 0.07 in 1.82 in (1988)
Month to date precipitation 0.15 1.01  
Year to date precipitation 20.84 33.09  
Snow  
Snow 0.00 in 0.10 in 8.00 in (1947)
Month to date snowfall 0.0 1.2  
Since 1 July snowfall 0.0 1.6  
Since 1 September snowfall 0.0 1.6  
Snow Depth 0.00 in    
Sea Level Pressure  
Sea Level Pressure 29.75 in    
Wind  
Wind Speed 13 mph (West)    
Max Wind Speed 26 mph    
Max Gust Speed 33 mph    
Visibility 10 miles    
Events Rain    
T = Trace of Precipitation, MM = Missing Value Source: NWS Daily Summary

Daily Weather History Graph

Daily Weather History Graph

Search for Another Location

Airport or City:

Trip Planner

Search our weather history database for the weather conditions in past years. The results will help you decide how hot, cold, wet, or windy it might be!

Date:

Astronomy

Nov. 15, 2011 Rise Set
Actual Time 7:05 AM CST 4:49 PM CST
Civil Twilight 6:35 AM CST 5:20 PM CST
Nautical Twilight 6:00 AM CST 5:54 PM CST
Astronomical Twilight 5:27 AM CST 6:28 PM CST
Moon 8:58 PM CST (11/15) 11:06 AM CST (11/15)
Length of Visible Light 10h 44m
Length of Day
9h 43m
Waning Gibbous, 79% of the Moon is Illuminated
Nov 15
Waning Gibbous
Nov 18
Last Quarter
Nov 25
New
Dec 2
First Quarter
Dec 10
Full

Hourly Weather History & Observations

Time (CST) Temp. Windchill Dew Point Humidity Pressure Visibility Wind Dir Wind Speed Gust Speed Precip Events Conditions
12:53 AM 34.0 °F 28.0 °F 23.0 °F 64% 29.65 in 10.0 mi South 6.9 mph - N/A   Mostly Cloudy
1:53 AM 39.0 °F 34.0 °F 26.1 °F 60% 29.63 in 10.0 mi South 6.9 mph - N/A   Overcast
2:53 AM 39.2 °F 33.6 °F 28.4 °F 65% 29.61 in 10.0 mi SSE 8.1 mph - N/A Rain Light Rain
3:53 AM 48.0 °F - 30.0 °F 50% 29.52 in 10.0 mi South 15.0 mph - 0.00 in   Partly Cloudy
4:53 AM 43.0 °F 37.2 °F 30.0 °F 60% 29.57 in 10.0 mi South 10.4 mph - N/A   Clear
5:53 AM 37.4 °F 30.8 °F 30.2 °F 75% 29.58 in 10.0 mi SSW 9.2 mph - N/A   Clear
7:53 AM 41.0 °F 34.3 °F 30.9 °F 67% 29.63 in 10.0 mi WSW 11.5 mph - N/A   Clear
8:53 AM 44.6 °F 38.8 °F 28.4 °F 53% 29.64 in 10.0 mi WSW 11.5 mph - N/A   Clear
9:53 AM 46.9 °F - 27.0 °F 46% 29.68 in 10.0 mi West 13.8 mph 19.6 mph N/A   Clear
10:53 AM 51.1 °F - 27.0 °F 39% 29.70 in 10.0 mi West 16.1 mph - N/A   Clear
11:53 AM 50.0 °F - 27.0 °F 41% 29.70 in 10.0 mi WNW 13.8 mph - N/A   Clear
12:53 PM 54.0 °F - 24.1 °F 31% 29.70 in 10.0 mi West 13.8 mph 23.0 mph N/A   Clear
1:53 PM 55.0 °F - 19.9 °F 25% 29.72 in 10.0 mi West 21.9 mph 28.8 mph N/A   Clear
2:53 PM 52.0 °F - 19.9 °F 28% 29.74 in 10.0 mi West 24.2 mph 31.1 mph N/A   Mostly Cloudy
3:53 PM 48.9 °F - 23.0 °F 36% 29.77 in 10.0 mi WNW 18.4 mph 29.9 mph N/A   Mostly Cloudy
4:53 PM 45.0 °F 37.4 °F 21.0 °F 39% 29.81 in 10.0 mi WNW 18.4 mph 27.6 mph N/A   Clear
5:53 PM 41.0 °F 33.5 °F 19.0 °F 41% 29.87 in 10.0 mi WNW 13.8 mph - N/A   Partly Cloudy
6:53 PM 37.9 °F 29.2 °F 15.1 °F 39% 29.92 in 10.0 mi WNW 15.0 mph - N/A   Partly Cloudy
7:53 PM 33.1 °F 24.9 °F 15.1 °F 48% 29.94 in 10.0 mi WNW 10.4 mph - N/A   Clear
8:53 PM 30.9 °F 22.2 °F 15.1 °F 52% 29.96 in 10.0 mi West 10.4 mph - N/A   Clear
9:53 PM 28.9 °F 19.8 °F 14.0 °F 54% 29.98 in 10.0 mi West 10.4 mph - N/A   Clear
10:53 PM 27.0 °F 17.3 °F 14.0 °F 58% 29.99 in 10.0 mi West 10.4 mph - N/A   Clear
11:53 PM 23.0 °F 13.9 °F 12.9 °F 65% 30.01 in 10.0 mi West 8.1 mph - N/A   Clear